Printer-friendly version
Follow the MPC on Twitter Follow the MPC on Facebook The MPC blog
Minor Planet Center

MPEC 2010-G59 : 2010 GK23

The following Minor Planet Electronic Circular may be linked-to from your own Web pages, but must not otherwise be redistributed electronically.

A form allowing access to any MPEC is at the bottom of this page.


Read MPEC 2010-G58 Read MPEC 2010-G60


M.P.E.C. 2010-G59                                Issued 2010 Apr.  9, 15:20 UT

     The Minor Planet Electronic Circulars contain information on unusual
         minor planets and routine data on comets.  They are published
   on behalf of Commission 20 of the International Astronomical Union by the
          Minor Planet Center, Smithsonian Astrophysical Observatory,
                          Cambridge, MA 02138, U.S.A.

             Prepared using the Tamkin Foundation Computer Network

                              MPC@CFA.HARVARD.EDU
       URL http://www.minorplanetcenter.org/iau/mpc.html  ISSN 1523-6714

                                   2010 GK23

Observations:
     K10G23K  S2010 04 04.07456 13 39 24.25 +82 54 30.2                 EG059C51
     K10G23K  s2010 04 04.07456 1 +  932.7955 -   72.3206 + 6832.9365   EG059C51
     K10G23K  S2010 04 04.53769 13 40 37.94 +82 32 04.6                 EG059C51
     K10G23K  s2010 04 04.53769 1 +  934.6953 -   72.8737 + 6832.9534   EG059C51
     K10G23K  S2010 04 04.67000 13 40 58.16 +82 25 41.5                 EG059C51
     K10G23K  s2010 04 04.67000 1 +  933.4501 -   61.0021 + 6833.0273   EG059C51
     K10G23K  S2010 04 04.73608 13 41 08.57 +82 22 30.2                 EG059C51
     K10G23K  s2010 04 04.73608 1 +  925.6760 -   14.4394 + 6834.2461   EG059C51
     K10G23K  S2010 04 04.80230 13 41 17.66 +82 19 21.0                 EG059C51
     K10G23K  s2010 04 04.80230 1 +  932.1567 -   50.4210 + 6833.1197   EG059C51
     K10G23K* S2010 04 05.00082 13 41 45.69 +82 09 51.7          21   R EG059C51
     K10G23K  s2010 04 05.00082 1 +  936.9206 -   74.8740 + 6832.4283   EG059C51
     K10G23K  S2010 04 05.19921 13 42 10.35 +82 00 26.7                 EG059C51
     K10G23K  s2010 04 05.19921 1 +  927.2796 -   16.1281 + 6834.0915   EG059C51
     K10G23K  S2010 04 05.26543 13 42 18.57 +81 57 18.8                 EG059C51
     K10G23K  s2010 04 05.26543 1 +  934.1839 -   51.6866 + 6833.0027   EG059C51
     K10G23K  S2010 04 05.33152 13 42 25.97 +81 54 09.7                 EG059C51
     K10G23K  s2010 04 05.33152 1 +  925.8226 -    5.2100 + 6834.3416   EG059C51
     K10G23K  S2010 04 05.39773 13 42 33.89 +81 51 06.1                 EG059C51
     K10G23K  s2010 04 05.39773 1 +  932.4226 -   40.7943 + 6833.3269   EG059C51
     K10G23K  C2010 04 09.19024 13 47 30.76 +79 00 53.4          20.8 R EG059H01
     K10G23K  C2010 04 09.19746 13 47 30.92 +79 00 35.5          20.4 R EG059H01
     K10G23K  C2010 04 09.20439 13 47 31.15 +79 00 17.8          20.3 R EG059H01
     K10G23K  C2010 04 09.21138 13 47 31.32 +79 00 00.0          20.9 R EG059H01
     K10G23K KC2010 04 09.22927 13 47 30.75 +78 59 14.5          21.0 R EG059H36
     K10G23K KC2010 04 09.26941 13 47 31.91 +78 57 31.1          20.6 R EG059H36
     K10G23K IC2010 04 09.29384813 47 31.80 +78 56 29.8                 EG059H21
     K10G23K  C2010 04 09.30784113 47 32.05 +78 55 53.3          20.7 V EG059H21
     K10G23K  C2010 04 09.32316 13 47 33.99 +78 55 15.4          20.8 R EG059926
     K10G23K  C2010 04 09.33612 13 47 34.09 +78 54 43.3          20.2 R EG059926
     K10G23K  C2010 04 09.34256 13 47 34.40 +78 54 26.0          21.5 R EG059926
     K10G23K  C2010 04 09.34899 13 47 34.35 +78 54 09.8          20.8 R EG059926
     K10G23K  C2010 04 09.35543 13 47 34.55 +78 53 52.8          20.8 R EG059926

Observer details:
926 Tenagra II Observatory.  Observers P. R. Holvorcem, M. Schwartz.  Measurer
    P. R. Holvorcem.  0.81-m f/7 Ritchey-Chretien + CCD.
H01 Magdalena Ridge Observatory, Socorro.  Observer W. H. Ryan.  2.4-m f/8.9
    reflector + CCD.
H21 Astronomical Research Observatory, Westfield.  Observer R. Holmes.
    Measurer S. Foglia.
H36 Sandlot Observatory, Scranton.  Observer G. Hug.  0.56-m reflector + CCD.
C51 WISE.  Measurers A. Mainzer, E. Wright, J. Bauer, T. Grav, J. Dailey, J.
    Masiero, R. Cutri, R. McMillan, R. Walker.
    (http://wise.ssl.berkeley.edu/mission_sci.html)

Orbital elements:
2010 GK23                                                Earth MOID = 0.0969 AU
Epoch 2010 July 23.0 TT = JDT 2455400.5                 MPC
M  30.15210              (2000.0)            P               Q
n   0.18915647     Peri.  343.21981     -0.59989571     -0.71265735
a   3.0055359      Node   141.26941     +0.78447913     -0.61324539
e   0.7101457      Incl.   35.53740     +0.15721843     +0.34066053
P   5.21           H   19.8           G   0.15           U   9
Residuals in seconds of arc
100404 C51  0.4-  1.1-    100405 C51  0.8-  2.0-    100409 H21  0.1+  0.3+
100404 C51  2.1-  1.5+    100405 C51  0.8-  1.6+    100409 H21  0.1-  0.1-
100404 C51  0.9-  0.4+    100409 H01  0.3+  0.0     100409 926  0.1-  0.4-
100404 C51  0.8+  0.6-    100409 H01  0.2+  0.3+    100409 926  0.5-  0.8+
100404 C51  0.4+  0.5+    100409 H01  0.2+  0.1+    100409 926  0.0   0.1+
100405 C51  2.6+  0.3-    100409 H01  0.2+  0.0     100409 926  0.5-  0.4+
100405 C51  0.6+  0.2-    100409 H36  0.3-  0.6-    100409 926  0.2-  0.0
100405 C51  0.7+  0.2-    100409 H36  0.4+  1.4-

Ephemeris:
2010 GK23                a,e,i = 3.01, 0.71, 36                  q = 0.8712
Date    TT    R. A. (2000) Decl.     Delta      r     Elong.  Phase     V
2010 04 04    13 39.20   +82 58.3    0.529    1.142    91.4    61.1    20.9
2010 04 14    13 49.89   +75 43.7    0.640    1.235    95.0    54.0    21.3
2010 04 24    13 51.49   +69 35.3    0.751    1.333    97.7    48.4    21.6
2010 05 04    13 52.84   +63 56.6    0.863    1.432    99.6    43.9    22.0
2010 05 14    13 55.29   +58 32.2    0.977    1.532   100.9    40.4    22.3

Sonia Keys                   (C) Copyright 2010 MPC           M.P.E.C. 2010-G59

Read MPEC 2010-G58 Read MPEC 2010-G60


MPEC number:

Enter an MPEC number in one of the following forms:

  • 1997-B01 (the full form)
  • J97B01 (the packed version of the full form)
  • B01 (the abbreviated form)

Valid HTML 4.01!